DLH09CW EDDF-EDDH

Flight info

Callsign DLH09CW
Flight time 0h 49m
Altitude 35000
Route MARUN3W MARUN Y150 TOLGI DCT SAS/N0448F340 P605 NOLGO NOLGO6A
Aircraft A319/M-SDE3FGHIRWY/LB1

Departure

Time 2026-04-17 21:42
Airport Frankfurt Main Airport (EDDF)

Arrival

Time 2026-04-17 22:31
Airport Hamburg Helmut Schmidt Airport (EDDH)
Time Latitude Longitude Altitude Speed Heading
2026-04-17 21:10 50.04579 8.56623 356 ft 0 kts 114°
2026-04-17 21:28 50.04580 8.56619 356 ft 3 kts 115°
2026-04-17 21:28 50.04592 8.56582 363 ft 4 kts 117°
2026-04-17 21:28 50.04605 8.56545 364 ft 4 kts 122°
2026-04-17 21:28 50.04620 8.56512 358 ft 4 kts 143°
2026-04-17 21:29 50.04638 8.56502 360 ft 1 kts 204°
2026-04-17 21:29 50.04621 8.56489 360 ft 4 kts 204°
2026-04-17 21:29 50.04596 8.56472 358 ft 4 kts 204°
2026-04-17 21:29 50.04576 8.56458 356 ft 0 kts 205°
2026-04-17 21:33 50.04549 8.56440 359 ft 8 kts 203°
2026-04-17 21:33 50.04514 8.56372 356 ft 8 kts 251°
2026-04-17 21:33 50.04494 8.56281 357 ft 9 kts 251°
2026-04-17 21:34 50.04468 8.56184 360 ft 10 kts 248°
2026-04-17 21:34 50.04442 8.56077 356 ft 11 kts 249°
2026-04-17 21:34 50.04312 8.56076 362 ft 11 kts 153°
2026-04-17 21:35 50.04285 8.56186 355 ft 11 kts 107°
2026-04-17 21:35 50.04221 8.56251 355 ft 12 kts 159°
2026-04-17 21:35 50.04147 8.56313 360 ft 13 kts 122°
2026-04-17 21:35 50.04165 8.56436 355 ft 12 kts 70°
2026-04-17 21:36 50.04203 8.56599 360 ft 19 kts 69°
2026-04-17 21:36 50.04250 8.56794 360 ft 19 kts 69°
2026-04-17 21:36 50.04295 8.56984 359 ft 19 kts 70°
2026-04-17 21:36 50.04341 8.57173 361 ft 19 kts 69°
2026-04-17 21:37 50.04393 8.57393 365 ft 26 kts 70°
2026-04-17 21:37 50.04457 8.57661 368 ft 26 kts 69°
2026-04-17 21:37 50.04513 8.57903 364 ft 19 kts 71°
2026-04-17 21:37 50.04541 8.58034 363 ft 13 kts 71°
2026-04-17 21:38 50.04579 8.58172 365 ft 13 kts 70°
2026-04-17 21:38 50.04608 8.58297 370 ft 14 kts 70°
2026-04-17 21:38 50.04649 8.58538 369 ft 21 kts 116°
2026-04-17 21:38 50.04530 8.58616 371 ft 17 kts 175°
2026-04-17 21:39 50.04464 8.58496 370 ft 13 kts 250°
2026-04-17 21:39 50.04453 8.58451 372 ft 1 kts 250°
2026-04-17 21:39 50.04452 8.58447 371 ft 0 kts 250°
2026-04-17 21:39 50.04452 8.58444 371 ft 0 kts 250°
2026-04-17 21:40 50.04451 8.58440 372 ft 1 kts 249°
2026-04-17 21:40 50.04450 8.58435 372 ft 0 kts 249°
2026-04-17 21:40 50.04448 8.58426 371 ft 1 kts 249°
2026-04-17 21:40 50.04446 8.58420 370 ft 1 kts 249°
2026-04-17 21:41 50.04445 8.58417 370 ft 2 kts 249°
2026-04-17 21:41 50.04384 8.58154 368 ft 65 kts 249°
2026-04-17 21:41 50.04137 8.57122 367 ft 135 kts 249°
2026-04-17 21:42 50.03757 8.55491 483 ft 175 kts 251°
2026-04-17 21:42 50.03354 8.53727 1226 ft 172 kts 251°
2026-04-17 21:42 50.02956 8.51980 1977 ft 172 kts 250°
2026-04-17 21:42 50.02482 8.50278 2691 ft 171 kts 242°
2026-04-17 21:43 50.01786 8.48775 3358 ft 173 kts 223°
2026-04-17 21:43 50.00728 8.47947 4023 ft 172 kts 194°
2026-04-17 21:43 49.99518 8.47582 4513 ft 186 kts 188°
2026-04-17 21:43 49.98147 8.47324 4854 ft 209 kts 186°
2026-04-17 21:44 49.96685 8.47065 5629 ft 213 kts 187°
2026-04-17 21:44 49.95212 8.46588 6311 ft 225 kts 195°
2026-04-17 21:44 49.93629 8.45912 6874 ft 243 kts 196°
2026-04-17 21:44 49.92058 8.44882 7677 ft 250 kts 216°
2026-04-17 21:45 49.90948 8.42807 8557 ft 255 kts 245°
2026-04-17 21:45 49.90637 8.41044 9158 ft 259 kts 265°
2026-04-17 21:45 49.91242 8.37443 10348 ft 267 kts 304°
2026-04-17 21:45 49.92110 8.36082 10899 ft 271 kts 324°
2026-04-17 21:46 49.93829 8.34791 11610 ft 283 kts 336°
2026-04-17 21:46 49.95721 8.33570 11933 ft 307 kts 336°
2026-04-17 21:46 49.97766 8.32257 12234 ft 330 kts 336°
2026-04-17 21:46 49.99954 8.30847 12618 ft 348 kts 336°
2026-04-17 21:47 50.02254 8.29547 13327 ft 355 kts 343°
2026-04-17 21:47 50.04716 8.28953 14085 ft 362 kts 355°
2026-04-17 21:47 50.07251 8.29206 14781 ft 369 kts
2026-04-17 21:47 50.09732 8.30301 15474 ft 374 kts 17°
2026-04-17 21:48 50.12212 8.31622 16166 ft 378 kts 17°
2026-04-17 21:48 50.14679 8.32924 16833 ft 381 kts 17°
2026-04-17 21:48 50.17205 8.34250 17518 ft 385 kts 17°
2026-04-17 21:48 50.19754 8.35587 18187 ft 389 kts 17°
2026-04-17 21:49 50.22331 8.36942 18816 ft 392 kts 16°
2026-04-17 21:49 50.24927 8.38306 19409 ft 396 kts 16°
2026-04-17 21:49 50.27549 8.39682 20003 ft 399 kts 16°
2026-04-17 21:49 50.30186 8.41073 20602 ft 402 kts 16°
2026-04-17 21:50 50.32846 8.42503 21190 ft 405 kts 17°
2026-04-17 21:50 50.35525 8.43968 21767 ft 409 kts 17°
2026-04-17 21:50 50.38215 8.45450 22316 ft 412 kts 17°
2026-04-17 21:50 50.40933 8.46946 22865 ft 415 kts 17°
2026-04-17 21:51 50.43672 8.48453 23394 ft 419 kts 17°
2026-04-17 21:51 50.46431 8.49969 23892 ft 422 kts 17°
2026-04-17 21:51 50.49218 8.51459 24336 ft 424 kts 15°
2026-04-17 21:51 50.52037 8.52857 24782 ft 426 kts 14°
2026-04-17 21:52 50.54882 8.54198 25222 ft 428 kts 14°
2026-04-17 21:52 50.57745 8.55522 25653 ft 430 kts 13°
2026-04-17 21:52 50.60623 8.56854 26085 ft 432 kts 14°
2026-04-17 21:52 50.63513 8.58210 26521 ft 434 kts 14°
2026-04-17 21:53 50.66415 8.59592 26932 ft 437 kts 14°
2026-04-17 21:53 50.69328 8.60994 27362 ft 439 kts 14°
2026-04-17 21:53 50.72255 8.62406 27766 ft 441 kts 14°
2026-04-17 21:53 50.75195 8.63828 28174 ft 443 kts 14°
2026-04-17 21:54 50.78123 8.65419 28568 ft 448 kts 20°
2026-04-17 21:54 50.80889 8.67741 28948 ft 454 kts 30°
2026-04-17 21:54 50.83414 8.70787 29317 ft 460 kts 39°
2026-04-17 21:54 50.85616 8.74486 29677 ft 465 kts 49°
2026-04-17 21:55 50.87592 8.78570 30038 ft 468 kts 50°
2026-04-17 21:55 50.89541 8.82632 30355 ft 470 kts 50°
2026-04-17 21:55 50.91520 8.86770 30656 ft 472 kts 50°
2026-04-17 21:55 50.93503 8.90928 30977 ft 473 kts 50°
2026-04-17 21:56 50.95483 8.95086 31409 ft 472 kts 50°
2026-04-17 21:56 50.97456 8.99236 31839 ft 470 kts 50°
2026-04-17 21:56 50.99420 9.03371 32269 ft 469 kts 50°
2026-04-17 21:56 51.01387 9.07509 32712 ft 468 kts 50°
2026-04-17 21:57 51.03341 9.11625 33160 ft 466 kts 50°
2026-04-17 21:57 51.05288 9.15739 33600 ft 465 kts 50°
2026-04-17 21:57 51.07239 9.19829 34033 ft 463 kts 47°
2026-04-17 21:57 51.09455 9.23498 34433 ft 458 kts 38°
2026-04-17 21:58 51.11987 9.26514 34785 ft 453 kts 28°
2026-04-17 21:58 51.14757 9.28835 35100 ft 449 kts 19°
2026-04-17 21:58 51.17694 9.30436 35182 ft 443 kts 10°
2026-04-17 21:59 51.23699 9.32516 35193 ft 441 kts
2026-04-17 21:59 51.29693 9.34588 35197 ft 441 kts
2026-04-17 22:00 51.35690 9.36681 35193 ft 441 kts
2026-04-17 22:00 51.41642 9.38764 35184 ft 441 kts
2026-04-17 22:01 51.47634 9.40855 35194 ft 441 kts
2026-04-17 22:01 51.53624 9.42947 35199 ft 441 kts
2026-04-17 22:02 51.59615 9.45053 35197 ft 441 kts
2026-04-17 22:02 51.65608 9.47167 35200 ft 441 kts
2026-04-17 22:03 51.71601 9.49290 35200 ft 441 kts
2026-04-17 22:03 51.77589 9.51407 35203 ft 441 kts
2026-04-17 22:04 51.83530 9.53937 35204 ft 445 kts 18°
2026-04-17 22:04 51.89116 9.58403 35211 ft 449 kts 23°
2026-04-17 22:05 51.94664 9.63014 35211 ft 448 kts 23°
2026-04-17 22:05 52.00214 9.67614 35212 ft 448 kts 22°
2026-04-17 22:06 52.05757 9.72228 35212 ft 448 kts 23°
2026-04-17 22:06 52.11296 9.76855 35213 ft 447 kts 22°
2026-04-17 22:07 52.16826 9.81488 35217 ft 447 kts 22°
2026-04-17 22:07 52.22349 9.86127 35221 ft 446 kts 22°
2026-04-17 22:08 52.28067 9.89744 35225 ft 438 kts 10°
2026-04-17 22:08 52.33918 9.92296 35224 ft 436 kts 10°
2026-04-17 22:08 52.36815 9.93577 35047 ft 426 kts 10°
2026-04-17 22:09 52.39649 9.94837 34650 ft 420 kts 10°
2026-04-17 22:09 52.42454 9.96084 34185 ft 416 kts 10°
2026-04-17 22:09 52.45261 9.97322 33027 ft 424 kts 10°
2026-04-17 22:09 52.48184 9.98593 31369 ft 445 kts 10°
2026-04-17 22:10 52.51229 9.99920 29928 ft 459 kts 11°
2026-04-17 22:10 52.54332 10.01293 28801 ft 461 kts 11°
2026-04-17 22:10 52.57426 10.02677 27788 ft 461 kts 12°
2026-04-17 22:10 52.60497 10.04059 27067 ft 454 kts 12°
2026-04-17 22:11 52.63520 10.05420 26398 ft 446 kts 12°
2026-04-17 22:11 52.66497 10.06757 25733 ft 440 kts 12°
2026-04-17 22:11 52.69434 10.08076 25084 ft 435 kts 12°
2026-04-17 22:11 52.72334 10.09380 24439 ft 430 kts 12°
2026-04-17 22:12 52.75204 10.10671 23808 ft 425 kts 12°
2026-04-17 22:12 52.78074 10.11653 23123 ft 417 kts
2026-04-17 22:12 52.80938 10.11895 22573 ft 408 kts 358°
2026-04-17 22:12 52.83757 10.11976 22017 ft 403 kts 358°
2026-04-17 22:13 52.86537 10.12064 21518 ft 397 kts 358°
2026-04-17 22:13 52.89286 10.12158 21010 ft 393 kts 358°
2026-04-17 22:13 52.92010 10.12255 20535 ft 390 kts 358°
2026-04-17 22:13 52.94673 10.12348 20062 ft 386 kts 358°
2026-04-17 22:14 52.97331 10.12437 19841 ft 376 kts 358°
2026-04-17 22:14 52.99904 10.12527 19722 ft 363 kts 358°
2026-04-17 22:14 53.02379 10.12615 19598 ft 350 kts 358°
2026-04-17 22:14 53.04769 10.12700 19473 ft 338 kts 358°
2026-04-17 22:15 53.07097 10.12780 19192 ft 332 kts 358°
2026-04-17 22:15 53.09395 10.12848 18834 ft 330 kts 357°
2026-04-17 22:15 53.11727 10.12255 18609 ft 355 kts 339°
2026-04-17 22:15 53.14110 10.10815 18348 ft 370 kts 337°
2026-04-17 22:16 53.16532 10.09305 18082 ft 373 kts 337°
2026-04-17 22:16 53.18961 10.07776 17810 ft 373 kts 337°
2026-04-17 22:16 53.21377 10.06252 17493 ft 368 kts 337°
2026-04-17 22:16 53.23757 10.04750 17020 ft 363 kts 337°
2026-04-17 22:17 53.26108 10.03270 16526 ft 360 kts 337°
2026-04-17 22:17 53.28442 10.01801 16035 ft 357 kts 337°
2026-04-17 22:17 53.30759 10.00341 15531 ft 354 kts 337°
2026-04-17 22:17 53.33059 9.98894 15033 ft 354 kts 338°
2026-04-17 22:18 53.35443 9.97760 14546 ft 360 kts 351°
2026-04-17 22:18 53.37944 9.98005 14051 ft 362 kts 11°
2026-04-17 22:18 53.40371 9.99109 13458 ft 361 kts 14°
2026-04-17 22:18 53.42779 10.00271 12878 ft 359 kts 14°
2026-04-17 22:19 53.45169 10.01430 12309 ft 356 kts 14°
2026-04-17 22:19 53.47540 10.02583 11746 ft 354 kts 14°
2026-04-17 22:19 53.49893 10.03728 11194 ft 351 kts 14°
2026-04-17 22:19 53.52230 10.04867 10646 ft 349 kts 14°
2026-04-17 22:20 53.54545 10.05995 10303 ft 340 kts 14°
2026-04-17 22:20 53.56769 10.07084 10181 ft 326 kts 14°
2026-04-17 22:20 53.58903 10.08135 10050 ft 313 kts 14°
2026-04-17 22:20 53.60949 10.09151 9918 ft 301 kts 14°
2026-04-17 22:21 53.62925 10.10137 9675 ft 293 kts 14°
2026-04-17 22:21 53.64871 10.11110 9322 ft 290 kts 14°
2026-04-17 22:21 53.66802 10.12079 8936 ft 289 kts 14°
2026-04-17 22:21 53.68738 10.12863 8545 ft 284 kts
2026-04-17 22:22 53.70651 10.12370 8151 ft 276 kts 338°
2026-04-17 22:22 53.72433 10.11188 7749 ft 275 kts 335°
2026-04-17 22:22 53.74192 10.09946 7353 ft 273 kts 334°
2026-04-17 22:22 53.75934 10.08705 6972 ft 271 kts 334°
2026-04-17 22:23 53.77643 10.07484 6573 ft 269 kts 334°
2026-04-17 22:23 53.79364 10.06252 6163 ft 268 kts 334°
2026-04-17 22:23 53.81071 10.05020 5737 ft 266 kts 334°
2026-04-17 22:23 53.82772 10.03782 5306 ft 265 kts 334°
2026-04-17 22:24 53.84463 10.02539 4870 ft 264 kts 334°
2026-04-17 22:24 53.86044 10.01007 4433 ft 260 kts 315°
2026-04-17 22:24 53.87013 9.98496 4017 ft 255 kts 286°
2026-04-17 22:24 53.87118 9.95546 3578 ft 252 kts 259°
2026-04-17 22:25 53.86737 9.92660 3231 ft 247 kts 255°
2026-04-17 22:25 53.86323 9.89916 3114 ft 234 kts 254°
2026-04-17 22:25 53.85722 9.87453 3015 ft 221 kts 234°
2026-04-17 22:25 53.84704 9.85652 3013 ft 205 kts 216°
2026-04-17 22:26 53.83483 9.84552 3017 ft 194 kts 199°
2026-04-17 22:26 53.82212 9.84127 3033 ft 178 kts 183°
2026-04-17 22:26 53.81027 9.84288 2999 ft 164 kts 169°
2026-04-17 22:26 53.79992 9.84902 3002 ft 152 kts 155°
2026-04-17 22:27 53.79073 9.85708 3009 ft 146 kts 154°
2026-04-17 22:27 53.78175 9.86484 3010 ft 144 kts 154°
2026-04-17 22:27 53.77295 9.87247 3015 ft 145 kts 154°
2026-04-17 22:27 53.76403 9.88042 2935 ft 145 kts 152°
2026-04-17 22:28 53.75534 9.88870 2824 ft 142 kts 152°
2026-04-17 22:28 53.74704 9.89668 2612 ft 134 kts 154°
2026-04-17 22:28 53.73879 9.90381 2300 ft 133 kts 155°
2026-04-17 22:28 53.73034 9.91043 1929 ft 136 kts 155°
2026-04-17 22:29 53.72185 9.91710 1609 ft 132 kts 154°
2026-04-17 22:29 53.71375 9.92366 1401 ft 127 kts 152°
2026-04-17 22:29 53.70589 9.93042 1190 ft 126 kts 151°
2026-04-17 22:29 53.69819 9.93737 1041 ft 125 kts 149°
2026-04-17 22:30 53.69046 9.94413 885 ft 125 kts 151°
2026-04-17 22:30 53.68264 9.95073 735 ft 126 kts 150°
2026-04-17 22:30 53.67488 9.95754 517 ft 125 kts 150°
2026-04-17 22:30 53.66714 9.96428 379 ft 125 kts 150°
2026-04-17 22:31 53.65940 9.97096 202 ft 125 kts 150°
2026-04-17 22:31 53.65168 9.97753 65 ft 120 kts 149°
2026-04-17 22:31 53.64604 9.98245 59 ft 51 kts 153°
2026-04-17 22:31 53.64372 9.98445 56 ft 48 kts 153°
2026-04-17 22:32 53.64034 9.98738 52 ft 57 kts 153°
2026-04-17 22:32 53.63694 9.99032 48 ft 51 kts 153°
2026-04-17 22:32 53.63425 9.99264 45 ft 36 kts 153°
2026-04-17 22:32 53.63307 9.99449 47 ft 16 kts 115°
2026-04-17 22:33 53.63283 9.99611 48 ft 10 kts 100°
2026-04-17 22:33 53.63278 9.99651 48 ft 0 kts 100°
2026-04-17 22:33 53.63277 9.99660 48 ft 2 kts 100°
2026-04-17 22:33 53.63274 9.99738 48 ft 14 kts 85°
2026-04-17 22:34 53.63346 9.99897 48 ft 18 kts 50°
2026-04-17 22:34 53.63420 10.00049 48 ft 12 kts 50°
2026-04-17 22:34 53.63414 10.00147 47 ft 7 kts 152°
2026-04-17 22:34 53.63365 10.00159 46 ft 8 kts 175°
2026-04-17 22:35 53.63306 10.00167 48 ft 11 kts 175°
2026-04-17 22:35 53.63248 10.00226 48 ft 10 kts 118°
2026-04-17 22:35 53.63243 10.00328 48 ft 7 kts 84°
2026-04-17 22:35 53.63245 10.00354 48 ft 0 kts 85°